カタログに戻る

STARLINK-37222

運用中通信SSO
NORAD 68663·PAYLOAD·🇺🇸 United States

打ち上げ Apr 11, 2026 から Vandenberg Space Force Base

Loading…

次のパス (今後24時間)

TLE

最新Source: CelesTrak SupGP

元期: Sep 14, 2026, 21:42 UTC

1 68663C 26077B   26257.90465278  .00018722  00000+0  58111-3 0  2579
2 68663  97.2848 127.8215 0001589  88.0718 202.3166 15.33432770    16

AllMySatでSTARLINK-37222をリアルタイム追跡

Download on the App Store